FW4117 Weather Reports


Display with metric or nautical units.
time (UTC)temp
F
wind
direction
speed
MPH
gust
MPH
rain 1hr
in
rain 24hr
in
rain mn
in
humidity
%
barometer
mb
20260510115503 68 59 2.0 5.0 0.00 0.00 0.00 81 1013.2
20260510115003 68 62 2.0 5.0 0.00 0.00 0.00 81 1013.1
20260510114503 68 74 2.0 7.0 0.00 0.00 0.00 81 1013.1
20260510114214 68 71 3.0 7.0 0.00 0.00 0.00 81 1013.0
20260510113503 68 61 3.0 8.0 0.00 0.00 0.00 80 1012.9
20260510113003 68 65 3.0 8.0 0.00 0.00 0.00 80 1012.9
20260510112713 69 70 3.0 8.0 0.00 0.00 0.00 80 1013.0
20260510112003 69 65 3.0 8.0 0.00 0.00 0.00 80 1012.9
20260510111503 69 61 4.0 8.0 0.00 0.00 0.00 80 1012.9
20260510111003 69 58 4.0 8.0 0.00 0.00 0.00 80 1012.9
20260510110503 69 62 4.0 9.0 0.00 0.00 0.00 79 1012.9
20260510110003 69 62 4.0 9.0 0.00 0.00 0.00 79 1012.9
20260510105503 69 60 4.0 9.0 0.00 0.00 0.00 78 1012.9
20260510105213 69 61 4.0 9.0 0.00 0.00 0.00 77 1012.9
20260510104503 69 66 4.0 13.0 0.00 0.00 0.00 77 1012.8
20260510104003 70 59 4.0 13.0 0.00 0.00 0.00 76 1012.8
20260510103503 70 59 4.0 11.0 0.00 0.00 0.00 76 1012.8
20260510103003 70 60 4.0 11.0 0.00 0.00 0.00 76 1012.8
20260510102712 70 59 4.0 12.0 0.00 0.00 0.00 76 1012.6
20260510102003 70 56 4.0 12.0 0.00 0.00 0.00 76 1012.7
20260510101503 70 59 4.0 9.0 0.00 0.00 0.00 77 1012.6
20260510101003 70 59 3.0 9.0 0.00 0.00 0.00 78 1012.8
20260510100503 70 55 3.0 8.0 0.00 0.00 0.00 78 1012.6
20260510100213 70 59 3.0 8.0 0.00 0.00 0.00 78 1012.6
20260510095503 71 61 3.0 9.0 0.00 0.00 0.00 78 1012.5
20260510095003 71 62 3.0 9.0 0.00 0.00 0.00 78 1012.5
20260510094503 71 58 3.0 8.0 0.00 0.00 0.00 78 1012.5
20260510094003 71 53 3.0 10.0 0.00 0.00 0.00 78 1012.5
20260510093503 72 54 3.0 10.0 0.00 0.00 0.00 79 1012.4
20260510093003 72 59 3.0 9.0 0.00 0.00 0.00 80 1012.2
20260510092503 72 51 3.0 10.0 0.00 0.00 0.00 80 1012.0
20260510092003 72 48 4.0 10.0 0.00 0.00 0.00 80 1012.0
20260510091503 72 51 4.0 12.0 0.00 0.00 0.00 80 1011.8
20260510091003 73 55 3.0 12.0 0.00 0.00 0.00 82 1011.8
20260510090503 73 56 2.0 9.0 0.00 0.00 0.00 83 1011.6
20260510090003 74 41 2.0 9.0 0.00 0.00 0.00 84 1011.6
20260510085503 74 33 1.0 7.0 0.00 0.00 0.00 84 1011.5
20260510085213 74 24 1.0 6.0 0.00 0.00 0.00 84 1011.5
20260510084714 75 21 1.0 6.0 0.00 0.00 0.00 85 1011.3
20260510084003 75 19 1.0 10.0 0.00 0.00 0.00 84 1011.4
20260510083503 75 1 1.0 10.0 0.00 0.00 0.00 84 1011.3
20260510083003 75 343 1.0 4.0 0.00 0.00 0.00 84 1011.5
20260510082714 75 342 1.0 5.0 0.00 0.00 0.00 84 1011.5
20260510082003 74 327 1.0 5.0 0.00 0.00 0.00 83 1011.3
20260510081503 74 333 1.0 5.0 0.00 0.00 0.00 82 1011.4
20260510081003 74 336 1.0 9.0 0.00 0.00 0.00 82 1011.5
20260510080503 75 333 2.0 9.0 0.00 0.00 0.00 81 1011.6
20260510080003 75 339 1.0 6.0 0.00 0.00 0.00 80 1011.5
20260510075503 75 348 1.0 6.0 0.00 0.00 0.00 80 1011.2
20260510075003 75 50 0.0 2.0 0.00 0.00 0.00 79 1010.9
20260510074503 75 50 0.0 2.0 0.00 0.00 0.00 78 1010.5
20260510074003 75 50 0.0 2.0 0.00 0.00 0.00 78 1010.2
20260510073503 75 52 1.0 2.0 0.00 0.00 0.00 77 1010.1
20260510073003 75 52 1.0 3.0 0.00 0.00 0.00 76 1010.0
20260510072503 75 46 1.0 3.0 0.00 0.00 0.00 76 1009.9
20260510072003 76 48 1.0 3.0 0.00 0.00 0.00 76 1009.7
20260510071503 76 58 1.0 4.0 0.00 0.00 0.00 75 1009.6
20260510071003 76 69 1.0 5.0 0.00 0.00 0.00 75 1009.5
20260510070713 76 73 1.0 5.0 0.00 0.00 0.00 74 1009.5
20260510070212 76 81 2.0 7.0 0.00 0.00 0.00 74 1009.4
20260510065713 77 92 3.0 7.0 0.00 0.00 0.00 73 1009.2
20260510065003 77 112 2.0 7.0 0.00 0.00 0.00 73 1009.3
20260510064713 77 104 2.0 7.0 0.00 0.00 0.00 74 1009.4
20260510064003 76 102 3.0 10.0 0.00 0.00 0.00 74 1009.5
20260510063503 76 100 3.0 10.0 0.00 0.00 0.00 74 1009.5
20260510063003 76 81 2.0 6.0 0.00 0.00 0.00 74 1009.8
20260510062503 76 57 2.0 5.0 0.00 0.00 0.00 74 1010.2
20260510062003 76 29 1.0 5.0 0.00 0.00 0.00 74 1010.6
20260510061503 75 341 1.0 5.0 0.00 0.00 0.00 75 1011.0
20260510061003 75 320 2.0 12.0 0.00 0.00 0.00 75 1011.3
20260510060503 75 324 3.0 12.0 0.00 0.00 0.00 74 1011.3
20260510060214 76 332 3.0 12.0 0.00 0.00 0.00 74 1011.2
20260510055503 76 337 3.0 12.0 0.00 0.00 0.00 71 1011.1
20260510055003 77 337 2.0 9.0 0.00 0.00 0.00 72 1010.9
20260510054503 77 64 1.0 4.0 0.00 0.00 0.00 71 1009.6
20260510054003 77 101 2.0 6.0 0.00 0.00 0.00 71 1008.9
20260510053503 77 104 2.0 6.0 0.00 0.00 0.00 71 1008.6
20260510053003 77 106 2.0 5.0 0.00 0.00 0.00 70 1008.6
20260510052503 77 102 1.0 7.0 0.00 0.00 0.00 70 1008.5
20260510052003 77 90 1.0 7.0 0.00 0.00 0.00 70 1008.4
20260510051503 77 94 2.0 7.0 0.00 0.00 0.00 70 1008.3
20260510051003 77 101 2.0 7.0 0.00 0.00 0.00 69 1008.2
20260510050503 77 103 2.0 7.0 0.00 0.00 0.00 69 1008.2
20260510050213 77 104 2.0 6.0 0.00 0.00 0.00 68 1008.2
20260510045503 78 114 2.0 8.0 0.00 0.00 0.00 68 1008.1
20260510045213 78 115 2.0 8.0 0.00 0.00 0.00 68 1008.0
20260510044503 78 114 3.0 10.0 0.00 0.00 0.00 68 1007.7
20260510044003 78 116 4.0 11.0 0.00 0.00 0.00 67 1007.6
20260510043503 78 115 3.0 11.0 0.00 0.00 0.00 67 1007.6
20260510043003 78 116 3.0 8.0 0.00 0.00 0.00 67 1007.5
20260510042503 78 116 3.0 8.0 0.00 0.00 0.00 67 1007.7
20260510042003 78 116 3.0 8.0 0.00 0.00 0.00 66 1007.7
20260510041503 78 110 3.0 7.0 0.00 0.00 0.00 66 1007.9
20260510041003 78 110 2.0 7.0 0.00 0.00 0.00 66 1007.9
20260510040503 78 116 2.0 7.0 0.00 0.00 0.00 66 1008.0
20260510040003 78 109 2.0 8.0 0.00 0.00 0.00 66 1008.0
20260510035503 78 103 2.0 8.0 0.00 0.00 0.00 66 1008.0
20260510035003 78 97 2.0 7.0 0.00 0.00 0.00 66 1008.0
20260510034503 77 91 1.0 7.0 0.00 0.00 0.00 66 1008.0
20260510034213 77 83 0.0 2.0 0.00 0.00 0.00 66 1008.0
20260510033503 77 82 1.0 3.0 0.00 0.00 0.00 66 1008.1
20260510033213 77 81 1.0 3.0 0.00 0.00 0.00 66 1008.1
20260510032503 78 76 1.0 3.0 0.00 0.00 0.00 67 1008.2
20260510032003 78 76 1.0 3.0 0.00 0.00 0.00 67 1008.2
20260510031503 78 78 0.0 3.0 0.00 0.00 0.00 67 1008.3
20260510031003 78 80 0.0 2.0 0.00 0.00 0.00 67 1008.3
20260510030714 78 80 0.0 2.0 0.00 0.00 0.00 68 1008.4
20260510030003 78 79 0.0 2.0 0.00 0.00 0.00 68 1008.3
20260510025503 78 80 0.0 2.0 0.00 0.00 0.00 68 1008.2
20260510025212 78 79 0.0 2.0 0.00 0.00 0.00 68 1008.3
20260510024503 78 74 0.0 3.0 0.00 0.00 0.00 68 1008.2
20260510024003 79 74 0.0 3.0 0.00 0.00 0.00 68 1008.2
20260510023503 79 75 0.0 3.0 0.00 0.00 0.00 68 1008.2
20260510023003 79 75 0.0 3.0 0.00 0.00 0.00 68 1008.2
20260510022503 79 75 0.0 1.0 0.00 0.00 0.00 68 1008.1
20260510022003 80 75 0.0 2.0 0.00 0.00 0.00 68 1008.0
20260510021503 80 75 0.0 2.0 0.00 0.00 0.00 67 1007.9
20260510021003 80 68 1.0 3.0 0.00 0.00 0.00 66 1007.9
20260510020503 81 63 1.0 5.0 0.00 0.00 0.00 66 1007.9
20260510020212 81 64 2.0 5.0 0.00 0.00 0.00 66 1007.8
20260510015503 81 61 2.0 4.0 0.00 0.00 0.00 65 1007.6
20260510015003 82 59 2.0 8.0 0.00 0.00 0.00 64 1007.4
20260510014503 82 58 2.0 8.0 0.00 0.00 0.00 64 1007.4
20260510014003 82 55 2.0 7.0 0.00 0.00 0.00 63 1007.5
20260510013713 82 59 2.0 6.0 0.00 0.00 0.00 62 1007.4
20260510013212 83 63 2.0 6.0 0.00 0.00 0.00 61 1007.3
20260510012503 83 60 1.0 5.0 0.00 0.00 0.00 58 1007.2
20260510012003 83 62 1.0 3.0 0.00 0.00 0.00 56 1007.2
20260510011503 84 65 0.0 2.0 0.00 0.00 0.00 55 1007.1
20260510011003 84 65 0.0 2.0 0.00 0.00 0.00 55 1007.0
20260510010503 84 64 0.0 3.0 0.00 0.00 0.00 55 1006.9
20260510010003 84 57 1.0 3.0 0.00 0.00 0.00 54 1006.9
20260510005503 85 57 1.0 3.0 0.00 0.00 0.00 53 1007.0
20260510005003 85 81 1.0 3.0 0.00 0.00 0.00 53 1006.9
20260510004503 85 108 1.0 3.0 0.00 0.00 0.00 53 1006.9
20260510004003 85 99 1.0 4.0 0.00 0.00 0.00 52 1006.9
20260510003503 86 87 2.0 4.0 0.00 0.00 0.00 52 1006.8
20260510003003 86 84 1.0 3.0 0.00 0.00 0.00 52 1006.7
20260510002503 86 71 1.0 4.0 0.00 0.00 0.00 53 1006.7
20260510002214 86 61 2.0 6.0 0.00 0.00 0.00 52 1006.8
20260510001503 87 57 2.0 6.0 0.00 0.00 0.00 50 1006.9
20260510001003 87 61 1.0 4.0 0.00 0.00 0.00 50 1006.9
20260510000503 88 57 1.0 4.0 0.00 0.00 0.00 49 1006.9
20260510000003 88 48 2.0 5.0 0.00 0.00 0.00 49 1006.8
20260509235503 88 50 2.0 7.0 0.00 0.00 0.00 49 1006.9
20260509235003 88 53 2.0 7.0 0.00 0.00 0.00 49 1007.0
20260509234503 88 56 1.0 6.0 0.00 0.00 0.00 50 1007.0
20260509234003 88 58 2.0 6.0 0.00 0.00 0.00 49 1007.0
20260509233503 88 56 2.0 7.0 0.00 0.00 0.00 49 1007.0
20260509233003 88 59 2.0 7.0 0.00 0.00 0.00 48 1007.1
20260509232503 88 61 2.0 4.0 0.00 0.00 0.00 51 1007.1
20260509232003 88 56 2.0 6.0 0.00 0.00 0.00 49 1007.2
20260509231503 88 59 2.0 6.0 0.00 0.00 0.00 50 1007.2
20260509231003 89 63 1.0 4.0 0.00 0.00 0.00 50 1007.1
20260509230503 88 63 2.0 7.0 0.00 0.00 0.00 50 1007.2
20260509230003 89 66 2.0 6.0 0.00 0.00 0.00 50 1007.3
20260509225503 89 68 2.0 5.0 0.00 0.00 0.00 50 1007.2
20260509225213 89 63 2.0 7.0 0.00 0.00 0.00 50 1007.2
20260509224503 89 58 2.0 7.0 0.00 0.00 0.00 51 1007.2
20260509224003 89 69 2.0 7.0 0.00 0.00 0.00 51 1007.2
20260509223503 89 93 2.0 7.0 0.00 0.00 0.00 51 1007.2
20260509223003 89 77 2.0 8.0 0.00 0.00 0.00 50 1007.2
20260509222503 89 65 3.0 7.0 0.00 0.00 0.00 51 1007.3
20260509222003 89 67 3.0 7.0 0.00 0.00 0.00 52 1007.3
20260509221503 89 61 2.0 8.0 0.00 0.00 0.00 51 1007.3
20260509221003 89 59 2.0 8.0 0.00 0.00 0.00 51 1007.3
20260509220503 89 65 2.0 6.0 0.00 0.00 0.00 52 1007.3
20260509220003 89 73 3.0 5.0 0.00 0.00 0.00 51 1007.3
20260509215503 89 70 2.0 7.0 0.00 0.00 0.00 52 1007.4
20260509215003 89 75 2.0 6.0 0.00 0.00 0.00 53 1007.3
20260509214714 89 85 2.0 5.0 0.00 0.00 0.00 53 1007.3
20260509214003 89 90 2.0 6.0 0.00 0.00 0.00 53 1007.3
20260509213714 89 84 2.0 7.0 0.00 0.00 0.00 52 1007.4
20260509213003 89 65 2.0 7.0 0.00 0.00 0.00 53 1007.5
20260509212503 90 55 2.0 7.0 0.00 0.00 0.00 52 1007.5
20260509212003 89 65 2.0 8.0 0.00 0.00 0.00 52 1007.5
20260509211503 90 75 3.0 8.0 0.00 0.00 0.00 51 1007.5
20260509211003 90 67 2.0 7.0 0.00 0.00 0.00 53 1007.7
20260509210503 89 59 1.0 6.0 0.00 0.00 0.00 53 1007.7
20260509210212 89 63 2.0 6.0 0.00 0.00 0.00 53 1007.9
20260509205713 89 84 2.0 6.0 0.00 0.00 0.00 54 1007.9
20260509205003 89 97 2.0 5.0 0.00 0.00 0.00 54 1008.0
20260509204503 89 98 2.0 5.0 0.00 0.00 0.00 54 1008.0
20260509204003 89 86 2.0 5.0 0.00 0.00 0.00 53 1008.2
20260509203503 90 64 2.0 8.0 0.00 0.00 0.00 52 1008.2
20260509203003 90 39 1.0 8.0 0.00 0.00 0.00 50 1008.2
20260509202503 89 281 1.0 7.0 0.00 0.00 0.00 52 1008.2
20260509202212 88 305 2.0 7.0 0.00 0.00 0.00 49 1008.2
20260509201503 90 54 1.0 4.0 0.00 0.00 0.00 50 1008.3
20260509201003 89 351 1.0 5.0 0.00 0.00 0.00 49 1008.4
20260509200503 90 15 1.0 7.0 0.00 0.00 0.00 48 1008.5
20260509200003 90 51 1.0 7.0 0.00 0.00 0.00 50 1008.5
20260509195503 89 56 1.0 3.0 0.00 0.00 0.00 52 1008.6
20260509195214 89 67 1.0 4.0 0.00 0.00 0.00 53 1008.6
20260509194503 89 34 1.0 4.0 0.00 0.00 0.00 52 1008.7
20260509194003 88 319 1.0 4.0 0.00 0.00 0.00 50 1008.8
20260509193503 88 319 1.0 4.0 0.00 0.00 0.00 52 1008.9
20260509193003 88 289 1.0 6.0 0.00 0.00 0.00 53 1008.9
20260509192503 88 309 1.0 6.0 0.00 0.00 0.00 52 1008.9
20260509192214 88 350 1.0 3.0 0.00 0.00 0.00 52 1008.9
20260509191503 88 321 1.0 4.0 0.00 0.00 0.00 52 1009.0
20260509191003 88 353 1.0 3.0 0.00 0.00 0.00 52 1009.0
20260509190503 88 16 0.0 3.0 0.00 0.00 0.00 52 1009.2
20260509190003 88 336 1.0 3.0 0.00 0.00 0.00 50 1009.3
20260509185503 88 353 1.0 3.0 0.00 0.00 0.00 54 1009.2
20260509185003 87 32 1.0 4.0 0.00 0.00 0.00 52 1009.3
20260509184503 87 95 1.0 7.0 0.00 0.00 0.00 53 1009.4
20260509184003 87 99 1.0 7.0 0.00 0.00 0.00 54 1009.5
20260509183503 87 93 1.0 6.0 0.00 0.00 0.00 54 1009.5
20260509183003 86 359 1.0 3.0 0.00 0.00 0.00 56 1009.5
20260509182712 86 18 1.0 6.0 0.00 0.00 0.00 56 1009.6
20260509182003 86 21 1.0 6.0 0.00 0.00 0.00 54 1009.5
20260509181503 87 19 1.0 4.0 0.00 0.00 0.00 56 1009.5
20260509181213 86 13 1.0 4.0 0.00 0.00 0.00 55 1009.6
20260509180503 87 45 1.0 5.0 0.00 0.00 0.00 55 1009.7
20260509180003 87 60 1.0 5.0 0.00 0.00 0.00 54 1009.7
20260509175503 87 60 1.0 4.0 0.00 0.00 0.00 54 1009.8
20260509175213 87 63 1.0 6.0 0.00 0.00 0.00 56 1009.8
20260509174503 86 46 1.0 6.0 0.00 0.00 0.00 57 1009.8
20260509174003 85 344 1.0 4.0 0.00 0.00 0.00 56 1009.9
20260509173503 86 324 1.0 5.0 0.00 0.00 0.00 56 1009.9
20260509173213 86 326 1.0 5.0 0.00 0.00 0.00 56 1010.0
20260509172503 85 328 1.0 4.0 0.00 0.00 0.00 56 1010.1
20260509172003 86 359 1.0 8.0 0.00 0.00 0.00 55 1010.1
20260509171503 85 345 1.0 8.0 0.00 0.00 0.00 56 1010.2
20260509171003 85 335 1.0 9.0 0.00 0.00 0.00 54 1010.2
20260509170503 85 318 1.0 9.0 0.00 0.00 0.00 55 1010.2
20260509170003 85 320 1.0 7.0 0.00 0.00 0.00 54 1010.2
20260509165503 85 307 1.0 7.0 0.00 0.00 0.00 56 1010.2
20260509165213 85 281 2.0 8.0 0.00 0.00 0.00 56 1010.2
20260509164503 85 273 2.0 8.0 0.00 0.00 0.00 55 1010.3
20260509164003 85 278 2.0 8.0 0.00 0.00 0.00 56 1010.4
20260509163503 85 321 2.0 8.0 0.00 0.00 0.00 56 1010.4
20260509163003 84 336 2.0 7.0 0.00 0.00 0.00 56 1010.5
20260509162503 84 331 1.0 5.0 0.00 0.00 0.00 57 1010.4
20260509162212 84 331 1.0 4.0 0.00 0.00 0.00 56 1010.5
20260509161713 84 325 1.0 7.0 0.00 0.00 0.00 57 1010.5
20260509161003 84 306 1.0 6.0 0.00 0.00 0.00 57 1010.4
20260509160503 84 307 2.0 7.0 0.00 0.00 0.00 56 1010.3
20260509160003 83 306 2.0 8.0 0.00 0.00 0.00 56 1010.3
20260509155503 83 300 2.0 8.0 0.00 0.00 0.00 57 1010.2
20260509155212 83 288 2.0 7.0 0.00 0.00 0.00 58 1010.1
20260509154503 83 294 2.0 6.0 0.00 0.00 0.00 60 1010.1
20260509154003 82 282 3.0 8.0 0.00 0.00 0.00 60 1010.2
20260509153503 82 280 3.0 8.0 0.00 0.00 0.00 58 1010.3
20260509153212 82 291 2.0 8.0 0.00 0.00 0.00 59 1010.3
20260509152503 82 312 2.0 6.0 0.00 0.00 0.00 62 1010.2
20260509152003 81 302 2.0 10.0 0.00 0.00 0.00 62 1010.3
20260509151503 81 287 2.0 10.0 0.00 0.00 0.00 63 1010.4
20260509151212 81 285 2.0 9.0 0.00 0.00 0.00 63 1010.3
20260509150503 80 271 2.0 9.0 0.00 0.00 0.00 63 1010.4
20260509150003 80 277 2.0 8.0 0.00 0.00 0.00 62 1010.4
20260509145503 80 290 2.0 8.0 0.00 0.00 0.00 63 1010.4
20260509145003 79 285 2.0 8.0 0.00 0.00 0.00 62 1010.4
20260509144713 79 283 2.0 7.0 0.00 0.00 0.00 63 1010.4
20260509144003 79 295 1.0 6.0 0.00 0.00 0.00 67 1010.5
20260509143503 78 288 2.0 6.0 0.00 0.00 0.00 66 1010.4
20260509143003 78 297 2.0 8.0 0.00 0.00 0.00 68 1010.5
20260509142503 77 308 1.0 8.0 0.00 0.00 0.00 70 1010.4
20260509142003 77 319 1.0 5.0 0.00 0.00 0.00 72 1010.4
20260509141503 77 333 1.0 5.0 0.00 0.00 0.00 74 1010.4
20260509141003 76 314 1.0 4.0 0.00 0.00 0.00 78 1010.4
20260509140503 76 328 0.0 4.0 0.00 0.00 0.00 80 1010.4
20260509140214 75 339 1.0 5.0 0.00 0.00 0.00 80 1010.4
20260509135503 74 316 1.0 5.0 0.00 0.00 0.00 82 1010.4
20260509135214 74 283 0.0 3.0 0.00 0.00 0.00 83 1010.4
20260509134503 74 275 1.0 6.0 0.00 0.00 0.00 84 1010.5
20260509134003 73 277 1.0 6.0 0.00 0.00 0.00 85 1010.4
20260509133503 73 282 1.0 6.0 0.00 0.00 0.00 85 1010.4
20260509133214 73 288 0.0 6.0 0.00 0.00 0.00 86 1010.3
20260509132503 72 271 1.0 6.0 0.00 0.00 0.00 87 1010.3
20260509132003 72 268 1.0 4.0 0.00 0.00 0.00 89 1010.4
20260509131712 71 269 1.0 4.0 0.00 0.00 0.00 89 1010.3
20260509131003 71 275 1.0 6.0 0.00 0.00 0.00 91 1010.3
20260509130712 70 271 2.0 6.0 0.00 0.01 0.00 91 1010.3
20260509130003 70 274 2.0 6.0 0.00 0.01 0.00 91 1010.4
20260509125503 69 275 2.0 7.0 0.00 0.01 0.00 92 1010.4
20260509125003 69 275 2.0 7.0 0.00 0.01 0.00 92 1010.3
20260509124503 69 276 1.0 4.0 0.00 0.01 0.00 92 1010.5
20260509124003 69 266 1.0 4.0 0.00 0.01 0.00 92 1010.3
20260509123503 68 274 1.0 4.0 0.00 0.01 0.00 92 1010.3
20260509123003 68 284 1.0 3.0 0.00 0.01 0.00 92 1010.2
20260509122503 68 288 1.0 4.0 0.00 0.01 0.00 93 1010.1
20260509122213 68 291 0.0 4.0 0.00 0.01 0.00 92 1010.1
20260509121503 68 302 0.0 2.0 0.00 0.01 0.00 92 1010.0
20260509121003 68 280 0.0 3.0 0.00 0.01 0.00 92 1010.0
20260509120503 68 281 1.0 4.0 0.00 0.01 0.00 92 1010.0
20260509120003 68 287 1.0 4.0 0.00 0.01 0.00 92 1009.9